Flag for U.S.A. Weather past 2 weeks in Urbana, Illinois, U.S.A.

Now
35 °F

Overcast.


Feels Like: 24 °F
Forecast: 29 / 38 °F
Wind: 18 mph from Northwest

Location: University Of Illinois-Willard Airport

Current Time: Jan 29, 2015 at 3:03:17 PM

Latest Report: Jan 29, 2015 at 1:53 PM


Visibility: 6 mi

Pressure: 30.07 "Hg

Humidity: 78%

Dew point: 29 °F

Location of UrbanaLocation

Historic Weather in Urbana — Graph

°F

Urbana temperature yesterday

Maximum temperature yesterday: 37 °F (at 3:53 PM)
Minimum temperature yesterday: 19 °F (at 1:53 AM)
Average temperature yesterday: 30 °F

Past Weeks' High & Low Weather Summary

 TemperatureHumidityPressure
High47 °F (Jan 17, 1:53 PM)97% (Jan 21, 7:53 PM)30.46 "Hg (Jan 21, 7:53 PM)
Low12 °F (Jan 14, 9:53 PM)65% (Jan 22, 1:53 PM)29.61 "Hg (Jan 25, 4:53 AM)
Average32 °F84%30.03 "Hg
* Reported Jan 14 1:53 PM — Jan 29 1:53 PM, Urbana, Weather by CustomWeather, © 2014

Note: Actual official high and low records may vary slightly from our data, if they occured in-between our weather recording intervals... More about our weather records

Advertising

Urbana weather history for previous 24 hours

 ConditionsComfort  
Time TempWeatherWind HumidityBarometerVisibility
1:53 PM
Jan 29
35 °FOvercast.18 mph78%30.07 "Hg6 mi
12:53 PM35 °FOvercast.21 mph78%30.04 "Hg6 mi
11:53 AM35 °FOvercast.21 mph82%30.02 "Hg5 mi
10:53 AM35 °FFog.20 mph85%29.99 "Hg4 mi
9:53 AM35 °FFog.23 mph88%29.96 "Hg2 mi
8:53 AM36 °FFog.21 mph85%29.90 "Hg4 mi
7:53 AM37 °FFog.26 mph86%29.84 "Hg6 mi
6:53 AM38 °FOvercast.23 mph86%29.78 "Hg9 mi
5:53 AM40 °FPassing clouds.16 mph80%29.74 "Hg10 mi
4:53 AM39 °FPassing clouds.20 mph79%29.71 "Hg10 mi
3:53 AM38 °FClear.20 mph79%29.72 "Hg10 mi
2:53 AM38 °FClear.21 mph76%29.75 "Hg10 mi
1:53 AM37 °FClear.17 mph76%29.78 "Hg10 mi
12:53 AM37 °FPassing clouds.22 mph70%29.80 "Hg10 mi
11:53 PM
Jan 28
37 °FPassing clouds.16 mph67%29.87 "Hg10 mi
10:53 PM36 °FMostly cloudy.16 mph67%29.93 "Hg10 mi
9:53 PM35 °FPassing clouds.16 mph70%29.96 "Hg10 mi
8:53 PM35 °FClear.22 mph67%29.96 "Hg10 mi
7:53 PM35 °FClear.22 mph67%29.98 "Hg10 mi
6:53 PM34 °FClear.16 mph73%30.01 "Hg10 mi
5:53 PM34 °FClear.16 mph73%30.05 "Hg10 mi
4:53 PM35 °FSunny.18 mph72%30.08 "Hg10 mi
3:53 PM37 °FSunny.18 mph70%30.11 "Hg10 mi
Weather by CustomWeather, © 2014

See weather overviewHow to use our weather pages